Location: Zagreb
(45.8150°N, 15.9819°E)
Time: 14:59:44
(UTC+02:00)

ISS - Visible Passes

Search period start: 17 July 2024 00:00
Search period end: 27 July 2024 00:00
Orbit: 410 x 424 km, 51.6° (Epoch: 17 July)

Date Brightness Start Highest point End Pass type
(mag) Time Alt. Az. Time Alt. Az. Time Alt. Az.
17 Jul -2.3 00:41:08 10° WNW 00:43:06 33° WNW 00:43:06 33° WNW visible
17 Jul -1.8 22:15:58 10° WNW 22:18:56 28° N 22:21:53 10° ENE visible
17 Jul -3.3 23:52:50 10° WNW 23:56:05 57° NNE 23:56:05 57° NNE visible
18 Jul -1.8 21:27:28 10° WNW 21:30:24 28° N 21:33:21 10° ENE visible
18 Jul -2.7 23:04:29 10° NW 23:07:40 42° NNE 23:09:07 26° ENE visible
19 Jul -1.3 00:41:16 10° WNW 00:41:59 15° WNW 00:41:59 15° WNW visible
19 Jul -2.3 22:16:04 10° NW 22:19:08 34° NNE 22:22:09 10° E visible
19 Jul -2.7 23:52:47 10° WNW 23:55:01 39° WNW 23:55:01 39° WNW visible
20 Jul -2.1 21:27:34 10° WNW 21:30:34 30° N 21:33:33 10° ENE visible
20 Jul -3.8 23:04:19 10° WNW 23:07:38 78° NNE 23:08:04 63° E visible
21 Jul -3.2 22:15:51 10° WNW 22:19:07 54° NNE 22:21:07 21° E visible
21 Jul -1.5 23:52:48 10° W 23:53:59 18° W 23:53:59 18° W visible
22 Jul -2.7 21:27:21 10° NW 21:30:31 41° NNE 21:33:40 10° E visible
22 Jul -3.2 23:04:06 10° WNW 23:07:02 44° SW 23:07:02 44° SW visible
23 Jul -3.8 22:15:27 10° WNW 22:18:46 73° SSW 22:20:06 33° SE visible
24 Jul -3.7 21:26:51 10° WNW 21:30:10 74° NNE 21:33:10 12° ESE visible
24 Jul -1.7 23:04:10 10° W 23:06:02 18° WSW 23:06:02 18° WSW visible
25 Jul -2.6 22:15:08 10° WNW 22:18:06 30° SW 22:19:07 25° S visible
26 Jul -3.3 21:26:18 10° WNW 21:29:31 49° SW 21:32:13 14° SE visible
